Regional Weather Roundup
Issued by NWS

Home | Current Version | Previous Version | Text Only | Print | Product List | Glossary On
Versions: 1 2 3 4 5 6 7 8 9 10 11 12 13 14 15 16 17 18 19 20 21 22 23 24 25 26 27 28 29 30 31 32 33 34 35 36 37 38 39 40 41 42 43 44 45 46 47 48 49 50
000
ASUS46 KSEW 031310
RWRWA

WASHINGTON REGIONAL WEATHER ROUNDUP
NATIONAL WEATHER SERVICE SEATTLE WA
600 AM PDT FRI JUL 03 2015

NOTE:"FAIR" INDICATES FEW OR NO CLOUDS BELOW 12,000 FEET WITH NO
SIGNIFICANT WEATHER AND/OR OBSTRUCTIONS TO VISIBILITY.

WAZ505-507>509-031400-
SEATTLE, TACOMA, EVERETT, AND VICINITY

CITY           SKY/WX    TMP DP  RH WIND       PRES   REMARKS
EVERETT        CLEAR     65  53  65 VRB7      29.98R
BOEING FIELD   CLEAR     68  53  58 CALM      29.96R
RENTON         CLEAR     64  58  80 CALM      29.96R
SEATAC AIRPORT PTCLDY    67  53  61 N5        29.97R
JBLM-MCCHORD   CLEAR     58  55  88 S2        29.97R
PUYALLUP       FAIR      59  59 100 CALM      29.98R
BREMERTON      CLEAR     57  54  88 CALM      29.99F
JBLM-FT LEWIS  CLEAR     62  56  81 SW2       29.97R
TACOMA NARROWS CLEAR     61  56  83 CALM      29.97S
$$

WAZ001-503-506-510-514-515-031400-
NORTH INTERIOR

CITY           SKY/WX    TMP DP  RH WIND       PRES   REMARKS
BELLINGHAM     CLEAR     63  57  81 S3        29.95S
FRIDAY HARBOR  CLEAR     54  52  93 CALM      29.97R
EASTSOUND      CLEAR     64  59  82 CALM      29.95R
PORT ANGELES   CLEAR     54  52  93 CALM      29.96R
PORT TOWNSEND  FAIR      52  52 100 CALM      29.96S
NAS WHIDBEY    CLEAR     57  53  86 CALM      30.00R
ARLINGTON      CLEAR     55  48  76 CALM      29.97S
BURLINGTON     CLEAR     68  55  64 NW12      29.96S
$$

WAZ020-022-039-040-504-511-512-031400-
SOUTHWEST INTERIOR

CITY           SKY/WX    TMP DP  RH WIND       PRES   REMARKS
SHELTON        MOCLDY    56  54  93 W6        29.96R FOG
OLYMPIA        CLEAR     57  53  86 CALM      29.98R
CHEHALIS       FAIR      57  57 100 CALM      29.98R
KELSO          CLOUDY    61  54  77 CALM      30.02R
VANCOUVER      CLEAR     64  53  67 CALM      29.95R
SCAPPOOSE, OR  CLEAR     58  53  84 CALM      29.95R
PORTLAND, OR   PTCLDY    67  54  63 N3        29.96R
$$

WAZ021-516-517-031400-
WASHINGTON COAST

CITY           SKY/WX    TMP DP  RH WIND       PRES   REMARKS
FORKS          CLOUDY    52  52 100 CALM      29.97S FOG
HOQUIAM        CLOUDY    57  56  96 SW7       29.99S FOG
ASTORIA, OR    CLOUDY    60  57  89 NW5       30.00R
$$

WAZ019-023-024-040-518-519-031400-
CASCADE MOUNTAINS AND COLUMBIA GORGE

CITY           SKY/WX    TMP DP  RH WIND       PRES   REMARKS
TROUTDALE, OR  CLEAR     62  57  83 E3        29.94R
THE DALLES, OR CLEAR     70  52  52 S3        29.86R
$$

WAZ026-027-041>044-520-521-031400-
EAST SLOPES

CITY           SKY/WX    TMP DP  RH WIND       PRES   REMARKS
OMAK           CLEAR     72  48  42 N12       29.89R
WENATCHEE      CLEAR     76  50  40 W8        29.89R
ELLENSBURG     CLEAR     75  47  36 NW16G24   29.92R
YAKIMA         CLEAR     78  42  27 NW10      29.89R
$$

WAZ028-034-035-031400-
COLUMBIA BASIN

CITY           SKY/WX    TMP DP  RH WIND       PRES   REMARKS
EPHRATA        CLEAR     79  49  34 N5        29.85R
MOSES LAKE     CLEAR     67  48  50 CALM      29.86R
PASCO          CLEAR     64  60  87 E3        29.84R
HERMISTON, OR  CLEAR     66  49  54 CALM      29.86R
$$

WAZ036>038-031400-
NORTHEAST WASHINGTON

CITY           SKY/WX    TMP DP  RH WIND       PRES   REMARKS
SPOKANE GEIGER CLOUDY    67  45  45 CALM      29.93R
SPOKANE FELTS  CLEAR     65  53  65 CALM      29.93R
FAIRCHILD AFB  CLEAR     64  40  40 E3        29.93S
COEURDALENE,ID CLEAR     61  48  63 NE3       29.94R
DEER PARK      CLEAR     57  49  74 CALM      29.93R
$$

WAZ029>033-031400-
SOUTHEAST WASHINGTON

CITY           SKY/WX    TMP DP  RH WIND       PRES   REMARKS
PULLMAN        CLEAR     58  49  72 CALM      29.96R
LEWISTON, ID   CLEAR     69  43  38 SE3       29.90R
WALLA WALLA    CLEAR     79  48  33 S6        29.88R
PENDLETON, OR  CLEAR     70  42  36 SE8       29.91R
$$


USA.gov is the U.S. government's official web portal to all federal, state and local government web resources and services.